This is the latest recevied weather packets stored in our database for station/object KD8UYA. If no packets are shown the sender has not sent any weather packets the latest 10 day(s).
| Time | Temp. | Humidity | Pressure | Rain* | Wind** | Luminosity | Snow |
|---|---|---|---|---|---|---|---|
| 1778120117 | 7.22° C | 83% | 1012.2 hPa | 0 mm | - | - | - |
| 1778119227 | 7.22° C | 82% | 1012.1 hPa | 0 mm | - | - | - |
| 1778118315 | 7.78° C | 80% | 1012.1 hPa | 0 mm | - | - | - |
| 1778117418 | 7.78° C | 80% | 1011.9 hPa | 0 mm | - | - | - |
| 1778116514 | 8.33° C | 78% | 1011.8 hPa | 0 mm | - | - | - |
| 1778115612 | 8.33° C | 76% | 1011.7 hPa | 0 mm | - | - | - |
| 1778114712 | 8.33° C | 75% | 1011.7 hPa | 0 mm | - | - | - |
| 1778113809 | 8.33° C | 74% | 1011.8 hPa | 0 mm | - | - | - |
| 1778112928 | 8.89° C | 72% | 1011.7 hPa | 0 mm | - | - | - |
| 1778112014 | 8.89° C | 71% | 1011.6 hPa | 0 mm | - | - | - |
| 1778111107 | 9.44° C | 66% | 1011.6 hPa | 0 mm | - | - | - |
| 1778110206 | 9.44° C | 65% | 1011.7 hPa | 0 mm | - | - | - |
| 1778109304 | 9.44° C | 67% | 1011.4 hPa | 0 mm | - | - | - |
| 1778108404 | 9.44° C | 67% | 1011.3 hPa | 0 mm | - | - | - |
| 1778107503 | 9.44° C | 68% | 1011.3 hPa | 0 mm | - | - | - |
| 1778106602 | 9.44° C | 68% | 1011.2 hPa | 0 mm | - | - | - |
| 1778105777 | 10° C | 66% | 1010.9 hPa | 0 mm | - | - | - |
| 1778104859 | 10° C | 67% | 1010.9 hPa | 0 mm | - | - | - |
| 1778103957 | 10.56° C | 68% | 1010.8 hPa | 0 mm | - | - | - |
| 1778103062 | 11.11° C | 64% | 1010.4 hPa | 0 mm | - | - | - |
| 1778102155 | 11.11° C | 60% | 1010.2 hPa | 0 mm | - | - | - |
| 1778101259 | 11.11° C | 60% | 1010.2 hPa | 0 mm | - | - | - |
| 1778100356 | 11.11° C | 58% | 1010.3 hPa | 0 mm | - | - | - |
| 1778099468 | 11.11° C | 57% | 1010.4 hPa | 0 mm | - | - | - |
| 1778098553 | 11.11° C | 58% | 1010.2 hPa | 0 mm | - | - | - |
* Rain latest hour (hover to see other rain measurements)
** Current wind speed in m/s (hover to see current wind gust speed)